sat.trackr.live / text

‹ back to catalog

ONEWEB-0372

NORAD 49298 · 2021-090V

PAYLOAD ACTIVE UNKNOWN

§ Identity

Operator
Country
UK
Launch date
2021-10-14
Launch site
VOSTO
Launch vehicle
Mass (kg)
RCS (m²)

Purposes: comms

External: N2YO · Heavens-Above · Gunter

§ Orbital elements

Epoch: 2026-09-19T22:24:50.826240Z

Period
109.03 min
Inclination
87.9138°
Eccentricity
0.0002050
Mean motion
13.20770955 rev/d
Perigee alt
1,180.2 km
Apogee alt
1,183.3 km
Semi-major
7,559.9 km
B*
2.4854e-4
RAAN
255.5407°
Arg perigee
86.8466°
Mean anomaly
273.2902°
Rev number
24,234

§ Raw data

ONEWEB-03721 49298U 21090V   26262.93392160  .00000114  00000+0  24854-3 0  99962 49298  87.9138 255.5407 0002050  86.8466 273.2902 13.20770955242342

JSON: /api/v1/satellites/49298 · /tle

For live sub-satellite position, see the globe view (requires WebGL).

§ Visibility from observer

Set your observer location to see the next 7 days of passes ≥ 10°. The values pass through the URL so the page stays shareable.

No JS? Fill the form by hand. The geolocation button needs JavaScript.